Weather Roundup
Issued by NWS Chicago, IL

Home | Current Version | Previous Version | Graphics & Text | Print | Product List | Glossary On
Versions: 1 2 3 4 5 6 7 8 9 10 11 12 13 14 15 16 17 18 19 20 21 22 23 24 25 26 27 28 29 30 31 32 33 34 35 36 37 38 39 40 41 42 43 44 45 46 47 48 49 50
000
NZUS59 KLOT 240100
HRRLOT

CHICAGO AREA WEATHER ROUNDUP
NATIONAL WEATHER SERVICE CHICAGO/ROMEOVILLE IL
800 PM CDT THU OCT 23 2014

NOTE: "FAIR" INDICATES FEW OR NO CLOUDS BELOW 12,000 FEET WITH NO
SIGNIFICANT WEATHER AND/OR OBSTRUCTIONS TO VISIBILITY.

* THESE STATIONS ARE NOT UNDER NWS QUALITY CONTROL. THEY ALSO MAY NOT
  REPORT WEATHER SUCH AS PRECIPITATION OR FOG.

ILZ005-006-012>014-019>023-240200-
NORTHEAST ILLINOIS

CITY           SKY/WX    TMP DP  RH WIND       PRES   REMARKS
OHARE          CLOUDY    55  42  61 S5        30.07R
MIDWAY         CLOUDY    58  41  53 S8        30.08R
AURORA         CLOUDY    55  43  63 CALM      30.09R
WAUKEGAN       CLOUDY    53  44  71 CALM      30.07S
DUPAGE AIRPORT CLOUDY    54  43  66 CALM      30.08R
WHEELING       CLOUDY    57  42  57 S6        30.09R
NORTHERLY IS     N/A     56  40  55 S8          N/A
$$

WIZ051-052-058>065-066-070>072-240200-
SOUTHEAST WISCONSIN

CITY           SKY/WX    TMP DP  RH WIND       PRES   REMARKS
MILWAUKEE      CLOUDY    53  49  86 S6        30.07R FOG
KENOSHA*       LGT RAIN  51  48  89 CALM      30.08R FOG
RACINE*        LGT RAIN  52  48  86 S6        30.09R FOG
WAUKESHA       CLOUDY    54  45  71 CALM      30.07R
$$

INZ001>003-010>013-019-020-240200-
NORTHWEST INDIANA

CITY           SKY/WX    TMP DP  RH WIND       PRES   REMARKS
GARY*          MOCLDY    54  41  62 S5        30.10R
MICHIGAN CITY* NOT AVBL
RENSSELAER*    NOT AVBL
$$

LMZ740>746-240200-
SOUTHERN LAKE MICHIGAN

STATION/POSITION TIME  SKY/WX   TEMP WIND        PRES    VSBY
                                AIR  DIR/SP/G
                 (UTC)          (F)  (DEG/KT/KT) (MB)    (MI)
HARRISON CRIB    0000            56  180/  7/  8   N/A
BURNHAM HARBOR   0100            56  190/  5/ 10   N/A
CALUMET HARBOR   0000            56  170/  5/  8 1017.5R
BURNS HARBOR     NOT AVBL
MICHIGAN CITY    0000            55  130/  6/  8   N/A
$$

ABBREVIATIONS USED IN REMARKS
   TC - TEMPERATURE IN CELSIUS
  WCI - WIND CHILL INDEX
   HX - HEAT INDEX
  VSB - VISIBILITY
$$



USA.gov is the U.S. government's official web portal to all federal, state and local government web resources and services.